Regional Weather Roundup
Issued by NWS Sterling, VA

Home | Current Version | Previous Version | Text Only | Print | Product List | Glossary On
Versions: 1 2 3 4 5 6 7 8 9 10 11 12 13 14 15 16 17 18 19 20 21 22 23 24 25 26 27 28 29 30 31 32 33 34 35 36 37 38 39 40 41 42 43 44 45 46 47 48 49 50
000
ASUS41 KLWX 290110
RWRLWX

REGIONAL WEATHER ROUNDUP
NATIONAL WEATHER SERVICE BALTIMORE MD/WASHINGTON DC
800 PM EST FRI NOV 28 2014

Note: "FAIR" indicates few or no clouds below 12,000 feet
with no significant weather and/or obstructions to visibility.
 TC=TEMPERATURE CELSIUS

 * =Non NWS site. Station does not report precipitation (e.g. rain,
    snow, etc.), thunder, or fog.

DCZ001-MDZ009-015-VAZ040>042-051-053>054-290200-
WASHINGTON METRO

CITY           SKY/WX    TMP DP  RH WIND       PRES   REMARKS
WASHINGTON NAT PTCLDY    36  17  46 NW6       30.31R
DULLES         CLEAR     27  19  72 CALM      30.30R
ANDREWS AFB    CLEAR     32  18  54 W3        30.29R
FT BELVOIR     CLEAR     28  21  76 NW2       30.32R
QUANTICO       CLEAR     29  22  75 NW6       30.33R
COLLEGE PARK*  CLEAR     34  19  55 CALM      30.30R
LEESBURG*      CLEAR     32  23  69 NW3       30.29S
MANASSAS*      CLEAR     27  25  93 SE3       30.31R
GAITHERSBURG*  CLEAR     28  18  64 CALM      30.32R

$$

MDZ006>007-011-014-290200-
BALTIMORE METRO

CITY           SKY/WX    TMP DP  RH WIND       PRES   REMARKS
BWI AIRPORT    PTCLDY    28  18  66 CALM      30.29S
MD SCIENCE CTR   N/A     34  14  43 MISG      30.30R
MARTIN STATE   PTCLDY    30  21  69 CALM      30.31S
ANNAPOLIS      CLEAR     32  17  54 CALM      30.30S
FORT MEADE*    PTCLDY    27  23  86 CALM      30.32R

$$

MDZ012-015-019>023-290200-
MARYLAND EASTERN SHORE

CITY           SKY/WX    TMP DP  RH WIND       PRES   REMARKS
OCEAN CITY     CLEAR     26  21  81 CALM      30.30S
SALISBURY      CLEAR     28  21  75 CALM      30.30R
BAY BRIDGE AP*   N/A     34  19  55 W3        30.30S
CAMBRIDGE*     CLEAR     32  27  80 CALM      30.30R

$$

MDZ017>025-290200-
SOUTHERN MARYLAND

CITY           SKY/WX    TMP DP  RH WIND       PRES   REMARKS
PATUXENT RIVER CLEAR     27  21  78 W5        30.31R
ST INIGOES     CLEAR     28  20  71 CALM      30.31R
LEONARDTOWN*   CLEAR     28  21  74 CALM      30.32R

$$

MDZ003>005-290200-
NORTH CENTRAL MARYLAND

CITY           SKY/WX    TMP DP  RH WIND       PRES   REMARKS
FREDERICK*     CLEAR     30  16  55 NW7       30.31S
HAGERSTOWN APT CLEAR     30  14  51 CALM      30.26S
WESTMINSTER*   PTCLDY    28  16  59 NW6       30.25S

$$

MDZ501>502-290200-
WESTERN MARYLAND

CITY           SKY/WX    TMP DP  RH WIND       PRES   REMARKS
OAKLAND*       PTCLDY    18  18 100 SW3       30.12F
CUMBERLAND*    PTCLDY    30  18  59 CALM      30.30F

$$

VAZ025>031-290200-
SHENANDOAH VALLEY

CITY           SKY/WX    TMP DP  RH WIND       PRES   REMARKS
WINCHESTER*    PTCLDY    28  18  64 CALM      30.27S
FRONT ROYAL*   FAIR      28  19  69 CALM      30.25F
LURAY*         FAIR      28  25  86 SE3       30.24F
NEW MARKET*    FAIR      24  21  89 CALM      30.24F
STAUNTON*      PTCLDY    30  20  67 CALM      30.25F
WAYNESBORO*    CLOUDY    30  17  57 SW5       30.22F

$$

WVZ021-048>050-054>055-290200-
EASTERN WEST VIRGINIA PANHANDLE

CITY           SKY/WX    TMP DP  RH WIND       PRES   REMARKS
MARTINSBURG    PTCLDY    28  15  58 W3        30.28S
PETERSBURG*    NOT AVBL

$$

VAZ036>039-050-290200-
CENTRAL FOOTHILLS

CITY           SKY/WX    TMP DP  RH WIND       PRES   REMARKS
CHARLOTTESVILL CLOUDY    34  18  52 CALM      30.27R
CULPEPER*      CLEAR     25  19  80 CALM      30.30R
ORANGE*        CLEAR     28  23  80 CALM      30.30S
GORDONSVILLE*  FAIR      28  21  76 CALM      30.28S
WARRENTON*     FAIR      25  25 100 SE5       30.29R

$$

VAZ055>057-290200-
NORTH AND CENTRAL PIEDMONT

CITY           SKY/WX    TMP DP  RH WIND       PRES   REMARKS
FREDERICKSBRG* CLEAR     30  23  75 CALM      30.31R
STAFFORD*      CLEAR     26  19  75 CALM      30.35R

$$

NCZ024-NYZ072-PAZ021-071-VAZ022-071-290200-
OTHER REGIONAL OBSERVATIONS

CITY           SKY/WX    TMP DP  RH WIND       PRES   REMARKS
NEW YORK CITY  CLEAR     30  11  45 CALM      30.27R
PHILADELPHIA   PTCLDY    31  16  54 W7        30.29R
PITTSBURGH     MOCLDY    26  18  71 SE3       30.20F
ROANOKE        CLEAR     31  18  58 CALM      30.27F
RICHMOND       PTCLDY    32  22  66 CALM      30.30R
RALEIGH        PTCLDY    32  23  69 CALM      30.32R

$$

ANZ530>537-290200-
MARINE OBSERVATIONS

STATION/POSITION TIME  TEMP    WIND        PRES
                       AIR SEA DIR/SP/G
                 (UTC) (F)     (DEG/KT/KT) (MB)
THOMAS PT LIGHT  0100   36 45  290/  8/ 10 1027.3R
BALT KEY BRIDGE  0100   35     330/  8/  9 1025.7R
COVE POINT       0100   36     340/  9/ 11 1026.0R
LEWISETTA        0100   35 45  290/  3/  4 1026.0R
SOLOMONS ISLAND  0100      48                N/A
PINEY POINT      0100           40/  2/  3   N/A

$$




USA.gov is the U.S. government's official web portal to all federal, state and local government web resources and services.